Погода в Охотске

Погода в Охотске : погода сейчас, прогноз погоды и архив. Всё, что Вы хотите узнать о погоде в Охотске!

Хотите узнать прогноз погоды в Охотске? Тогда Вам сюда: Погода в Охотске

Поиск расширенной информации на нашем сайте:

Другие новости

Новости СМИ2

Главная страница сайта

Новости сайта

02.10.2013

Напоминаем, что на нашем новом сайте вы можете получить высокодетализированные прогнозы погоды по пунктам России, СНГ и мира (включающие важные для авиации метеовеличины, такие как направление и скорость ветра, видимость, явления погоды, количество и форма облачности, нижняя и верхняя граница облачности), а также ознакомиться с разнообразными материалами по авиационной метеорологии и подборкой полезных ссылок на эту тему.

Сайт Метеоцентр.Азия посвящён разработке технологий оптимизации авиаметеорологического обслуживания, включая проектирование и перспективное создание нескольких автоматизированных авиаметеорологических систем:
- система выпуска высокодетальных прогностических карт явлений погоды для нижнего воздушного пространства по России и ближнему зарубежью;
- система верификации прогнозов TAF (выпускаемых синоптиками официальных АМСГ РФ и ближнего зарубежья) и AUTOTAF (выпускаемых сайтом Метеоцентр.Азия) - выявление ошибок, онлайн-сопоставление с фактической погодой METAR, автоматическое внесение коррективов в прогнозы при резком отклонении фактической погоды от прогноза, подсчёт оправдываемости прогнозов по элементам и в целом;
- система обработки, анализа и отображения авиаметеорологической информации для применения провайдерами метеорологической информации.

Рекомендуем: Игры танки онлайн бесплатно здесь.

Погода в Охотске - сегодня

Время (UTC), дата Ветер
(°,м/с) 
Видим.   Явления Облачность Т
(°С)
Тd
(°С)
f(%) Тe
(°С)
Pmin
(гПа)
dP
(гПа)
Po
(мм)
O2
(г/м3)
Тmin Tmax R s Состояние
почвы
12 17.02.17 020 (С) 20000 м    6/0 средняя, верхняя 
[Ac lent|Ci fib]
-20.4 -28.8 47 -26  1014.7  -0.4  760  333           
15 17.02.17 020 (С) 20000 м    4/0 средняя, верхняя 
[Ac lent|Ci fib]
-21 -29 49 -27  1014.3  -0.4  760  334           
18 17.02.17 030 (СВ) 20000 м    4/0 средняя, верхняя 
[Ac lent|Ci fib]
-21.8 -29.4 50 -28  1013.7  -0.6  760  334           
21 17.02.17 020 (С) 20000 м    8/0 средняя, верхняя 
[Ac lent|Ci fib]
-22.2 -29.8 50 -29  1013.2  -0.5  759  335  -22.6      равномерный
мокрый или
старый снег
100% 
00 18.02.17 010 (С) 20000 м    8/0 средняя, верхняя 
[Ac lent|Ci fib]
-21.8 -29.9 48 -29  1013  -0.2  759  334  -22.9         
03 18.02.17 350 (С) 6{11}  20000 м    6/0 средняя, верхняя 
[Ac lent|Ci fib]
-18.2 -28.1 42 -25  1011.1  -1.9  758  329           
06 18.02.17 360 (С) 20000 м    6/0 средняя, верхняя 
[Ac lent|Ci fib]
-17.2 -27.6 40 -21  1009.8  -1.3  757  327           
09 18.02.17 010 (С) 20000 м    8/0 средняя, верхняя 
[Ac lent|Ci fib]
-19.7 -29.2 43 -25  1009.4  -0.4  756  330    -17.1       
12 18.02.17 010 (С) 20000 м    8/0 средняя, верхняя 
[Ac lent|Ci fib]
-21.3 -29.7 47 -27  1008.4  -0.4  756  332           
15 18.02.17 010 (С) 20000 м    4/0 средняя 
[Ac lent]
-21.6 -30.6 44 -28  1007.4  -1  755  332           
18 18.02.17 010 (С) 20000 м    4/0 средняя 
[Ac lent]
-22.2 -31.1 44 -29  1006.6  -0.8  754  333           
21 18.02.17 020 (С) 20000 м    4/0 средняя, верхняя 
[Ac lent|Ci fib]
-22.8 -31.2 46 -30  1006.4  -0.3  754  333  -23      равномерный
мокрый или
старый снег
100% 
00 19.02.17 010 (С) 20000 м    10/0 средняя, верхняя 
[Ac lent|Cs]
-22.1 -30.6 46 -30  1005.9  -0.5  754  332  -23.4         
03 19.02.17 360 (С) 20000 м    10/1 600 м средняя, верхняя 
[Sc|Ac lent|Cs]
-17.9 -27.6 42 -24  1004.8  -1.1  753  326           
06 19.02.17 350 (С) 20000 м    10/0 средняя, верхняя 
[Ac lent|Cs]
-16.1 -26 42 -21  1004.2  -0.6  753  324           
09 19.02.17 020 (С) 20000 м    10/3 600 м средняя, верхняя 
[Sc|Ac lent|Ci fib]
-17.4 -26.7 44 -22  1004.7  0.6  753  326    -15.8       
12 19.02.17 010 (С) 20000 м    10/5 600 м средняя, верхняя 
[Sc|Ac lent|Ci fib]
-17.2 -25.8 47 -23  1004.5  -0.3  753  325           
15 19.02.17 010 (С) 20000 м    10/8 600 м средняя 
[Sc|Ac As]
-16.8 -25.1 49 -23  1004.4  0.1  753  325           
18 19.02.17 010 (С) 20000 м    10/8 600 м средняя 
[Sc|Ac As]
-16.6 -24.9 49 -22  1004.7  0.3  753  325           
21 19.02.17 360 (С) 20000 м    10/10 700 м кучево-дожд. 
[Cb calv]
-16.1 -24.2 50 -22  1004.9  0.2  753  324  -17.6      равномерный
мокрый или
старый снег
100% 
00 20.02.17 360 (С) 6{10}  20000 м    10/5 600 м кучево-дожд., средняя 
[Cb calv|Ac As]
-15.5 -23.4 51 -22  1005.8  0.9  754  324           
03 20.02.17 360 (С) 5{10}  20000 м    10/4 600 м кучево-дожд., средняя, верхняя 
[Cb calv|Ac und|Cs]
-13.4 -21 53 -19  1005.5  -0.3  754  321           
06 20.02.17 010 (С) 20000 м    10/4 600 м средняя, верхняя 
[Sc|Ac trans|Cs]
-12.7 -19.5 57 -17  1005.4  0.1  754  320           
09 20.02.17 010 (С) 20000 м    10/3 600 м средняя, верхняя 
[Sc|Ac trans|Cs]
-13.7 -20.6 56 -18  1005.6  0.2  754  321    -12.4       
12 20.02.17 010 (С) 20000 м    10/5 600 м средняя, верхняя 
[Sc|Ac lent|Ci fib]
-13.6 -21.4 52 -19  1006.1  0.4  754  321           
Время (UTC), дата Ветер
(°,м/с) 
Видим.   Явления Облачность Т
(°С)
Тd
(°С)
f(%) Тe
(°С)
Pmin
(гПа)
dP
(гПа)
Po
(мм)
O2
(г/м3)
Тmin Tmax R s Состояние
почвы

Для получения пояснительной информации подведите курсор к названию столбца.

ПОГОДА в Охотске - архив

Всё, что Вы хотите узнать о погоде в Охотске - удобно и подробно!

Выберите нужную дату (начиная с 1 января 2015* года) и нажмите кнопку "Найти".
Будут отображены архивные сводки погоды по пункту Охотск, начиная с указанной даты.


Отображать данные в формате CSV (для использования в таблицах Excel)


Внимание! Наш архив погоды предназначен исключительно для личного некоммерческого использования в познавательных целях. Если Вам необходимы официальные справки о состоянии погоды (для производственных, юридических, коммерческих и т.п. целей), обращайтесь в органы Росгидромета.

*Примечание: данная дата относится к архиву по метеостанциям СССР (Россия, СНГ, Балтия).
Архив по метеостанциям Зарубежной Европы и Азии (кроме Китая) хранится 10 дней, по другим регионам земного шара (Китай, Африка, Америка, Австралия, Океания) - 1 день.

Охотск - район местоположения метеостанции


Название, широта, долгота, высота метеостанции:
Охотск 59.4°ш. 143.2°д. 6 м над ур. моря [Российская Федерация]

Дополнительная информация

В oтличие oт бoльшинства пoгoдных сайтoв мы публикуем пoдрoбную метеoинфoрмацию в детальнoм прoфессиoнальнoм фoрмате.

Характеристики температуры и влажнoсти вoздуха измеряются на высoте 2 м в тени вдали oт зданий и деревьев.
Скoрoсть ветра измеряется на высoте 10 м (на урoвне рoста челoвека скoрoсть ветра ниже в 1.5-2 раза). Если метеoстанция нахoдится в гoрoде или в лесу, тo скoрoсть ветра занижена на 2-4 м/с пo сравнению с oткрытым местoм. Скoрoсть ветра над акватoриями крупных рек и oзёр, а также на вершинах хoлмoв на 2-5 м/с выше, чем в oбычных услoвиях.
Атмoсфернoе давление в разных тoчках местнoсти мoжет значительнo oтличаться oт давления на метеoстанции, в зависимoсти oт услoвий рельефа (при пoдъёме на 10 м давление пoнижается примернo на 1 мм рт.ст.).